Location: Stilling
(56.0622°N, 9.9882°E)
Time: 23:44:31
(UTC+00:00)

NOSS 2-1 (C) - Pass Details

Date: 13 July 2020
Orbit: 443 x 1759 km, 63.3° (Epoch: 29 July)

Event Time Altitude Azimuth Distance (km) Brightness Sun altitude
Rises 22:33:59 0° 305° (NW) 2,749 7.7 -11.5°
Reaches altitude 10° 22:35:57 10° 309° (NW) 1,966 6.9 -11.6°
Maximum altitude 22:40:19 64° 32° (NNE) 820 4.4 -11.7°
Drops below altitude 10° 22:46:22 10° 114° (ESE) 2,697 6.5 -11.8°
Sets 22:49:27 0° 117° (ESE) 3,874 7.3 -11.9°
